,,,PA_Meas_PMT16A,,PR_Meas_QMR101_102,,RH_Meas_QMH101,,SR_Meas_QMS101,,TA_Meas_QMH101,,GenWind,,GenWind,
date,time,status,PA,status,PR,status,RH,status,SR,status,TA,status,DirAvg,status,SpdAvg,
2012-06-20, 00:00:05,VALID,1001.28,VALID,0,VALID,95.3931,VALID,0.104696,VALID,22.0998,VALID,28,VALID,0.681641,
2012-06-20, 00:01:05,VALID,1001.26,VALID,0,VALID,95.3855,VALID,0.104696,VALID,22.1405,VALID,28,VALID,0.763281,
2012-06-20, 00:02:05,VALID,1001.26,VALID,0,VALID,95.3321,VALID,0.104696,VALID,22.1389,VALID,28,VALID,0.586328,
2012-06-20, 00:03:05,VALID,1001.24,VALID,0,VALID,95.2787,VALID,0.104696,VALID,22.1194,VALID,28,VALID,0.609375,
2012-06-20, 00:04:05,VALID,1001.25,VALID,0,VALID,95.2024,VALID,0,VALID,22.1405,VALID,28,VALID,0.482422,
2012-06-20, 00:05:05,VALID,1001.25,VALID,0,VALID,95.0727,VALID,0,VALID,22.1015,VALID,28,VALID,0.309766,
2012-06-20, 00:06:05,VALID,1001.25,VALID,0,VALID,94.9659,VALID,0,VALID,22.1015,VALID,28,VALID,0.396094,
2012-06-20, 00:07:05,VALID,1001.24,VALID,0,VALID,94.9354,VALID,0,VALID,22.1032,VALID,28,VALID,0.490625,
2012-06-20, 00:08:05,VALID,1001.24,VALID,0,VALID,94.9506,VALID,0,VALID,22.082,VALID,28,VALID,0.671094,
2012-06-20, 00:09:05,VALID,1001.27,VALID,0,VALID,95.0117,VALID,0,VALID,22.1015,VALID,28,VALID,0.871484,
2012-06-20, 00:10:05,VALID,1001.22,VALID,0,VALID,94.9888,VALID,0,VALID,22.1015,VALID,28,VALID,0.807422,
2012-06-20, 00:11:05,VALID,1001.22,VALID,0,VALID,94.9277,VALID,0,VALID,22.082,VALID,28,VALID,0.639453,
2012-06-20, 00:12:05,VALID,1001.26,VALID,0,VALID,94.8591,VALID,0,VALID,22.0625,VALID,28,VALID,0.403125,
2012-06-20, 00:13:05,VALID,1001.25,VALID,0,VALID,94.7751,VALID,0,VALID,22.0235,VALID,28,VALID,0.215234,
2012-06-20, 00:14:05,VALID,1001.24,VALID,0,VALID,94.7294,VALID,0,VALID,21.9845,VALID,28,VALID,0.306641,
2012-06-20, 00:15:05,VALID,1001.23,VALID,0,VALID,94.7217,VALID,0,VALID,22.0057,VALID,28,VALID,0.417578,
2012-06-20, 00:16:05,VALID,1001.27,VALID,0,VALID,94.7141,VALID,0,VALID,21.9472,VALID,28,VALID,0.620313,
2012-06-20, 00:17:05,VALID,1001.21,VALID,0,VALID,94.7904,VALID,0,VALID,21.9455,VALID,28,VALID,0.652344,
2012-06-20, 00:18:05,VALID,1001.22,VALID,0,VALID,94.8896,VALID,0,VALID,21.9862,VALID,28,VALID,0.479688,
2012-06-20, 00:19:05,VALID,1001.19,VALID,0,VALID,94.9583,VALID,0,VALID,21.9862,VALID,28,VALID,0.307031,
2012-06-20, 00:20:05,VALID,1001.15,VALID,0,VALID,95.0117,VALID,0,VALID,21.9667,VALID,28,VALID,0.273828,
2012-06-20, 00:21:05,VALID,1001.15,VALID,0,VALID,95.0269,VALID,0,VALID,21.9667,VALID,28,VALID,0.618359,
2012-06-20, 00:22:05,VALID,1001.17,VALID,0,VALID,95.0956,VALID,0,VALID,21.9862,VALID,28,VALID,1.06055,
2012-06-20, 00:23:05,VALID,1001.16,VALID,0,VALID,95.1948,VALID,0,VALID,21.9845,VALID,31,VALID,1.15,
2012-06-20, 00:24:05,VALID,1001.17,VALID,0,VALID,95.149,VALID,0,VALID,21.926,VALID,44,VALID,1.01992,
2012-06-20, 00:25:05,VALID,1001.16,VALID,0,VALID,95.0803,VALID,0,VALID,21.887,VALID,33,VALID,1.03281,
2012-06-20, 00:26:05,VALID,1001.15,VALID,0,VALID,94.943,VALID,0,VALID,21.8301,VALID,34,VALID,0.965234,
2012-06-20, 00:27:05,VALID,1001.18,VALID,0,VALID,94.798,VALID,0,VALID,21.7716,VALID,34,VALID,0.682813,
2012-06-20, 00:28:05,VALID,1001.19,VALID,0,VALID,94.6454,VALID,0,VALID,21.6725,VALID,34,VALID,0.618359,
2012-06-20, 00:29:05,VALID,1001.2,VALID,0,VALID,94.6912,VALID,0,VALID,21.6546,VALID,34,VALID,0.777344,
2012-06-20, 00:30:05,VALID,1001.2,VALID,0,VALID,94.8896,VALID,0,VALID,21.6546,VALID,35,VALID,0.805078,
2012-06-20, 00:31:05,VALID,1001.25,VALID,0,VALID,94.9964,VALID,0,VALID,21.6936,VALID,35,VALID,0.920703,
2012-06-20, 00:32:05,VALID,1001.25,VALID,0,VALID,95.1261,VALID,0,VALID,21.7131,VALID,35,VALID,0.940234,
2012-06-20, 00:33:05,VALID,1001.24,VALID,0,VALID,95.21,VALID,0,VALID,21.7131,VALID,35,VALID,1.13516,
2012-06-20, 00:34:05,VALID,1001.25,VALID,0,VALID,95.2329,VALID,0,VALID,21.692,VALID,35,VALID,1.17344,
2012-06-20, 00:35:05,VALID,1001.27,VALID,0,VALID,95.2634,VALID,0,VALID,21.7326,VALID,42,VALID,1.28242,
2012-06-20, 00:36:05,VALID,1001.26,VALID,0,VALID,95.2405,VALID,0,VALID,21.7115,VALID,42,VALID,1.31055,
2012-06-20, 00:37:05,VALID,1001.29,VALID,0,VALID,95.2405,VALID,0,VALID,21.7131,VALID,42,VALID,1.38008,
2012-06-20, 00:38:05,VALID,1001.29,VALID,0,VALID,95.2711,VALID,0,VALID,21.7131,VALID,42,VALID,1.13086,
2012-06-20, 00:39:05,VALID,1001.31,VALID,0,VALID,95.2482,VALID,0,VALID,21.6725,VALID,40,VALID,1.09219,
2012-06-20, 00:40:05,VALID,1001.34,VALID,0,VALID,95.2024,VALID,0,VALID,21.6725,VALID,35,VALID,0.991406,
2012-06-20, 00:41:05,VALID,1001.34,VALID,0,VALID,95.149,VALID,0,VALID,21.6741,VALID,29,VALID,0.906641,
2012-06-20, 00:42:05,VALID,1001.3,VALID,0,VALID,95.1719,VALID,0,VALID,21.6546,VALID,29,VALID,0.815234,
2012-06-20, 00:43:05,VALID,1001.31,VALID,0,VALID,95.2329,VALID,0,VALID,21.6546,VALID,29,VALID,0.905859,
2012-06-20, 00:44:05,VALID,1001.29,VALID,0,VALID,95.2863,VALID,0,VALID,21.653,VALID,29,VALID,1.11328,
2012-06-20, 00:45:05,VALID,1001.28,VALID,0,VALID,95.3321,VALID,0,VALID,21.692,VALID,33,VALID,1.16328,
2012-06-20, 00:46:05,VALID,1001.27,VALID,0,VALID,95.3397,VALID,0,VALID,21.6936,VALID,33,VALID,0.907422,
2012-06-20, 00:47:05,VALID,1001.26,VALID,0,VALID,95.3474,VALID,0,VALID,21.6936,VALID,33,VALID,0.867969,
2012-06-20, 00:48:05,VALID,1001.24,VALID,0,VALID,95.3245,VALID,0,VALID,21.6725,VALID,33,VALID,0.742578,
2012-06-20, 00:49:05,VALID,1001.26,VALID,0,VALID,95.3092,VALID,0,VALID,21.6741,VALID,33,VALID,0.805078,
2012-06-20, 00:50:05,VALID,1001.24,VALID,0,VALID,95.2863,VALID,0,VALID,21.6741,VALID,33,VALID,0.591016,
2012-06-20, 00:51:05,VALID,1001.24,VALID,0,VALID,95.2787,VALID,0,VALID,21.6741,VALID,33,VALID,0.575391,
2012-06-20, 00:52:05,VALID,1001.23,VALID,0,VALID,95.2329,VALID,0,VALID,21.6335,VALID,33,VALID,0.858203,
2012-06-20, 00:53:05,VALID,1001.25,VALID,0,VALID,95.2329,VALID,0,VALID,21.6546,VALID,33,VALID,0.696875,
2012-06-20, 00:54:05,VALID,1001.25,VALID,0,VALID,95.2329,VALID,0,VALID,21.653,VALID,33,VALID,0.531641,
2012-06-20, 00:55:05,VALID,1001.23,VALID,0,VALID,95.2405,VALID,0,VALID,21.6546,VALID,33,VALID,0.645703,
2012-06-20, 00:56:05,VALID,1001.23,VALID,0,VALID,95.2482,VALID,0,VALID,21.6936,VALID,33,VALID,0.767578,
2012-06-20, 00:57:05,VALID,1001.21,VALID,0,VALID,95.2024,VALID,0,VALID,21.6725,VALID,33,VALID,0.688672,
2012-06-20, 00:58:05,VALID,1001.24,VALID,0,VALID,95.1719,VALID,0,VALID,21.692,VALID,33,VALID,0.448438,
2012-06-20, 00:59:05,VALID,1001.22,VALID,0,VALID,95.149,VALID,0,VALID,21.7131,VALID,33,VALID,0.512109,
2012-06-20, 01:00:05,VALID,1001.23,VALID,0,VALID,95.1108,VALID,0,VALID,21.7326,VALID,33,VALID,0.534766,
2012-06-20, 01:01:05,VALID,1001.22,VALID,0,VALID,95.0193,VALID,0,VALID,21.7521,VALID,33,VALID,0.689062,
2012-06-20, 01:02:05,VALID,1001.21,VALID,0,VALID,94.8896,VALID,0,VALID,21.7115,VALID,33,VALID,0.675,
2012-06-20, 01:03:05,VALID,1001.18,VALID,0,VALID,94.8209,VALID,0,VALID,21.7521,VALID,33,VALID,0.802734,
2012-06-20, 01:04:05,VALID,1001.17,VALID,0,VALID,94.5462,VALID,0,VALID,21.7115,VALID,33,VALID,0.958594,
2012-06-20, 01:05:05,VALID,1001.15,VALID,0,VALID,94.5081,VALID,0,VALID,21.7521,VALID,33,VALID,1.01563,
2012-06-20, 01:06:05,VALID,1001.14,VALID,0,VALID,94.5234,VALID,0,VALID,21.7521,VALID,33,VALID,0.909375,
2012-06-20, 01:07:05,VALID,1001.12,VALID,0,VALID,94.4318,VALID,0,VALID,21.7716,VALID,33,VALID,0.710938,
2012-06-20, 01:08:05,VALID,1001.08,VALID,0,VALID,94.3631,VALID,0,VALID,21.7716,VALID,33,VALID,0.589453,
2012-06-20, 01:09:05,VALID,1001.07,VALID,0,VALID,94.3479,VALID,0,VALID,21.7911,VALID,33,VALID,0.760938,
2012-06-20, 01:10:05,VALID,1001.05,VALID,0,VALID,94.3479,VALID,0,VALID,21.7895,VALID,33,VALID,0.700781,
2012-06-20, 01:11:05,VALID,1001.03,VALID,0,VALID,94.4089,VALID,0,VALID,21.8301,VALID,33,VALID,0.845703,
2012-06-20, 01:12:05,VALID,1001.08,VALID,0,VALID,94.3174,VALID,0,VALID,21.8496,VALID,33,VALID,0.791797,
2012-06-20, 01:13:05,VALID,1001.05,VALID,0,VALID,94.2411,VALID,0,VALID,21.8692,VALID,33,VALID,0.854688,
2012-06-20, 01:14:05,VALID,1001.07,VALID,0,VALID,94.1419,VALID,0,VALID,21.9082,VALID,33,VALID,0.928125,
2012-06-20, 01:15:05,VALID,1001.06,VALID,0,VALID,94.058,VALID,0,VALID,21.9472,VALID,44,VALID,1.12383,
2012-06-20, 01:16:05,VALID,1001.09,VALID,0,VALID,94.0961,VALID,0,VALID,21.9862,VALID,46,VALID,1.11328,
2012-06-20, 01:17:05,VALID,1001.09,VALID,0,VALID,94.119,VALID,0,VALID,21.9862,VALID,50,VALID,0.995703,
2012-06-20, 01:18:05,VALID,1001.1,VALID,0,VALID,93.8291,VALID,0,VALID,21.9472,VALID,54,VALID,1.04805,
2012-06-20, 01:19:05,VALID,1001.06,VALID,0,VALID,93.7299,VALID,0,VALID,21.9082,VALID,58,VALID,1.08516,
2012-06-20, 01:20:05,VALID,1001.11,VALID,0,VALID,93.9054,VALID,0,VALID,21.8692,VALID,59,VALID,1.23242,
2012-06-20, 01:21:05,VALID,1001.11,VALID,0,VALID,93.974,VALID,0,VALID,21.8301,VALID,61,VALID,1.14805,
2012-06-20, 01:22:05,VALID,1001.12,VALID,0,VALID,94.1495,VALID,0,VALID,21.8301,VALID,61,VALID,1.08789,
2012-06-20, 01:23:05,VALID,1001.11,VALID,0,VALID,94.264,VALID,0,VALID,21.8106,VALID,61,VALID,1.14453,
2012-06-20, 01:24:05,VALID,1001.12,VALID,0,VALID,94.2716,VALID,0,VALID,21.77,VALID,61,VALID,0.939062,
2012-06-20, 01:25:05,VALID,1001.1,VALID,0,VALID,94.3097,VALID,0,VALID,21.7716,VALID,61,VALID,1.1875,
2012-06-20, 01:26:05,VALID,1001.1,VALID,0,VALID,94.4242,VALID,0,VALID,21.7716,VALID,61,VALID,1.3,
2012-06-20, 01:27:05,VALID,1001.06,VALID,0,VALID,94.4318,VALID,0,VALID,21.7115,VALID,61,VALID,1.02539,
2012-06-20, 01:28:05,VALID,1001.06,VALID,0,VALID,94.47,VALID,0,VALID,21.7131,VALID,61,VALID,0.739453,
2012-06-20, 01:29:05,VALID,1001.07,VALID,0,VALID,94.4242,VALID,0,VALID,21.6741,VALID,61,VALID,0.278906,
2012-06-20, 01:30:05,VALID,1001.07,VALID,0,VALID,94.3479,VALID,0,VALID,21.6156,VALID,61,VALID,0.310156,
2012-06-20, 01:31:05,VALID,1001.06,VALID,0,VALID,94.4318,VALID,0,VALID,21.575,VALID,61,VALID,0.288672,
2012-06-20, 01:32:05,VALID,1001.07,VALID,0,VALID,94.6302,VALID,0,VALID,21.6156,VALID,61,VALID,0.507813,
2012-06-20, 01:33:05,VALID,1001.09,VALID,0,VALID,94.7828,VALID,0,VALID,21.614,VALID,61,VALID,0.497266,
2012-06-20, 01:34:05,VALID,1001.1,VALID,0,VALID,94.8591,VALID,0,VALID,21.6546,VALID,61,VALID,0.382031,
2012-06-20, 01:35:05,VALID,1001.1,VALID,0,VALID,94.9354,VALID,0,VALID,21.6725,VALID,61,VALID,0.104687,
2012-06-20, 01:36:05,VALID,1001.08,VALID,0,VALID,94.9659,VALID,0,VALID,21.6936,VALID,61,VALID,0.196094,
2012-06-20, 01:37:05,VALID,1001.08,VALID,0,VALID,95.0193,VALID,0,VALID,21.7131,VALID,61,VALID,0.332812,
2012-06-20, 01:38:05,VALID,1001.13,VALID,0,VALID,95.0574,VALID,0,VALID,21.7521,VALID,61,VALID,0.2875,
2012-06-20, 01:39:05,VALID,1001.1,VALID,0,VALID,95.0117,VALID,0,VALID,21.731,VALID,61,VALID,0.121484,
2012-06-20, 01:40:05,VALID,1001.11,VALID,0,VALID,94.9354,VALID,0,VALID,21.7115,VALID,61,VALID,0.0195313,
2012-06-20, 01:41:05,VALID,1001.08,VALID,0,VALID,94.943,VALID,0,VALID,21.731,VALID,61,VALID,0.623828,
2012-06-20, 01:42:05,VALID,1001.1,VALID,0,VALID,94.9811,VALID,0,VALID,21.7911,VALID,61,VALID,0.398438,
2012-06-20, 01:43:05,VALID,1001.12,VALID,0,VALID,94.9659,VALID,0,VALID,21.8285,VALID,61,VALID,0.195313,
2012-06-20, 01:44:05,VALID,1001.12,VALID,0,VALID,94.8896,VALID,0,VALID,21.8285,VALID,61,VALID,0.5,
2012-06-20, 01:45:05,VALID,1001.1,VALID,0,VALID,94.7751,VALID,0,VALID,21.8285,VALID,61,VALID,0.521094,
2012-06-20, 01:46:05,VALID,1001.09,VALID,0,VALID,94.6226,VALID,0,VALID,21.8692,VALID,61,VALID,0.943359,
2012-06-20, 01:47:05,VALID,1001.07,VALID,0,VALID,94.5386,VALID,0,VALID,21.8692,VALID,61,VALID,0.703125,
2012-06-20, 01:48:05,VALID,1001.07,VALID,0,VALID,94.3937,VALID,0,VALID,21.8887,VALID,61,VALID,0.721484,
2012-06-20, 01:49:05,VALID,1001.04,VALID,0,VALID,94.4089,VALID,0,VALID,21.8887,VALID,61,VALID,0.743359,
2012-06-20, 01:50:05,VALID,1001.05,VALID,0,VALID,94.386,VALID,0,VALID,21.8887,VALID,61,VALID,0.629297,
2012-06-20, 01:51:05,VALID,1001.02,VALID,0,VALID,94.2868,VALID,0,VALID,21.8692,VALID,43,VALID,0.676562,
2012-06-20, 01:52:05,VALID,1001.01,VALID,0,VALID,94.1724,VALID,0,VALID,21.8692,VALID,42,VALID,0.894141,
2012-06-20, 01:53:05,VALID,1001.03,VALID,0,VALID,94.0732,VALID,0,VALID,21.7895,VALID,42,VALID,1.04766,
2012-06-20, 01:54:05,VALID,1001.03,VALID,0,VALID,93.9893,VALID,0,VALID,21.77,VALID,38,VALID,1.16133,
2012-06-20, 01:55:05,VALID,1001.04,VALID,0,VALID,94.0961,VALID,0,VALID,21.7911,VALID,38,VALID,1.07148,
2012-06-20, 01:56:05,VALID,1001.05,VALID,0,VALID,94.0045,VALID,0,VALID,21.7716,VALID,38,VALID,1.11406,
2012-06-20, 01:57:05,VALID,1001.06,VALID,0,VALID,93.9588,VALID,0,VALID,21.731,VALID,38,VALID,0.794922,
2012-06-20, 01:58:05,VALID,1001.02,VALID,0,VALID,93.9435,VALID,0,VALID,21.692,VALID,38,VALID,0.753516,
2012-06-20, 01:59:05,VALID,1001,VALID,0,VALID,93.9817,VALID,0,VALID,21.6936,VALID,38,VALID,0.770312,
2012-06-20, 02:00:05,VALID,1001,VALID,0,VALID,94.0351,VALID,0,VALID,21.6335,VALID,38,VALID,0.768359,
2012-06-20, 02:01:05,VALID,1001.01,VALID,0,VALID,94.1648,VALID,0,VALID,21.6351,VALID,38,VALID,0.6625,
2012-06-20, 02:02:05,VALID,1001.01,VALID,0,VALID,94.2411,VALID,0,VALID,21.6156,VALID,38,VALID,0.682422,
2012-06-20, 02:03:05,VALID,1001,VALID,0,VALID,94.3097,VALID,0,VALID,21.6156,VALID,38,VALID,0.632031,
2012-06-20, 02:04:05,VALID,1000.98,VALID,0,VALID,94.3555,VALID,0,VALID,21.575,VALID,38,VALID,0.764844,
2012-06-20, 02:05:05,VALID,1000.97,VALID,0,VALID,94.4013,VALID,0,VALID,21.5555,VALID,38,VALID,0.65,
2012-06-20, 02:06:05,VALID,1000.96,VALID,0,VALID,94.4318,VALID,0,VALID,21.5571,VALID,38,VALID,0.651172,
2012-06-20, 02:07:05,VALID,1000.97,VALID,0,VALID,94.4165,VALID,0,VALID,21.5165,VALID,38,VALID,0.869531,
2012-06-20, 02:08:05,VALID,1000.91,VALID,0,VALID,94.4394,VALID,0,VALID,21.4775,VALID,38,VALID,0.908984,
2012-06-20, 02:09:05,VALID,1000.9,VALID,0,VALID,94.5005,VALID,0,VALID,21.458,VALID,38,VALID,0.702734,
2012-06-20, 02:10:05,VALID,1000.88,VALID,0,VALID,94.5844,VALID,0,VALID,21.458,VALID,38,VALID,0.696875,
2012-06-20, 02:11:05,VALID,1000.91,VALID,0,VALID,94.6988,VALID,0,VALID,21.458,VALID,38,VALID,0.675,
2012-06-20, 02:12:05,VALID,1000.89,VALID,0,VALID,94.7904,VALID,0,VALID,21.4791,VALID,38,VALID,0.849609,
2012-06-20, 02:13:05,VALID,1000.94,VALID,0,VALID,94.8667,VALID,0,VALID,21.4596,VALID,38,VALID,0.952734,
2012-06-20, 02:14:05,VALID,1000.93,VALID,0,VALID,94.8591,VALID,0,VALID,21.4401,VALID,38,VALID,0.859766,
2012-06-20, 02:15:05,VALID,1000.96,VALID,0,VALID,94.8362,VALID,0,VALID,21.4401,VALID,38,VALID,1.00078,
2012-06-20, 02:16:05,VALID,1000.97,VALID,0,VALID,94.8438,VALID,0,VALID,21.419,VALID,38,VALID,0.901953,
2012-06-20, 02:17:05,VALID,1000.96,VALID,0,VALID,94.7599,VALID,0,VALID,21.38,VALID,38,VALID,0.611719,
2012-06-20, 02:18:05,VALID,1000.94,VALID,0,VALID,94.6683,VALID,0,VALID,21.341,VALID,38,VALID,0.392188,
2012-06-20, 02:19:05,VALID,1000.95,VALID,0,VALID,94.6378,VALID,0,VALID,21.302,VALID,38,VALID,0.288672,
2012-06-20, 02:20:05,VALID,1000.96,VALID,0,VALID,94.676,VALID,0,VALID,21.3231,VALID,38,VALID,0.0875,
2012-06-20, 02:21:05,VALID,1000.94,VALID,0,VALID,94.7599,VALID,0,VALID,21.2825,VALID,38,VALID,0.05,
2012-06-20, 02:22:05,VALID,1000.94,VALID,0,VALID,94.8743,VALID,0,VALID,21.302,VALID,38,VALID,0.575781,
2012-06-20, 02:23:05,VALID,1000.96,VALID,0,VALID,94.9964,VALID,0,VALID,21.302,VALID,38,VALID,0.442969,
2012-06-20, 02:24:05,VALID,1000.96,VALID,0,VALID,95.0727,VALID,0,VALID,21.3215,VALID,38,VALID,0.426953,
2012-06-20, 02:25:05,VALID,1000.97,VALID,0,VALID,95.1871,VALID,0,VALID,21.3621,VALID,38,VALID,0.603516,
2012-06-20, 02:26:04,VALID,1000.97,VALID,0,VALID,95.2329,VALID,0,VALID,21.38,VALID,38,VALID,0.839063,
2012-06-20, 02:27:04,VALID,1000.94,VALID,0,VALID,95.2253,VALID,0,VALID,21.4206,VALID,38,VALID,0.763281,
2012-06-20, 02:28:04,VALID,1000.92,VALID,0,VALID,95.1795,VALID,0,VALID,21.4401,VALID,38,VALID,0.722266,
2012-06-20, 02:29:04,VALID,1000.94,VALID,0,VALID,95.1261,VALID,0,VALID,21.4401,VALID,38,VALID,0.815625,
2012-06-20, 02:30:04,VALID,1000.91,VALID,0,VALID,95.1032,VALID,0,VALID,21.4596,VALID,38,VALID,0.899609,
2012-06-20, 02:31:04,VALID,1000.87,VALID,0,VALID,95.0345,VALID,0,VALID,21.458,VALID,38,VALID,0.946094,
2012-06-20, 02:32:04,VALID,1000.83,VALID,0,VALID,94.9811,VALID,0,VALID,21.4791,VALID,38,VALID,1.06562,
2012-06-20, 02:33:04,VALID,1000.84,VALID,0,VALID,94.9125,VALID,0,VALID,21.458,VALID,38,VALID,1.1,
2012-06-20, 02:34:04,VALID,1000.83,VALID,0,VALID,94.8667,VALID,0,VALID,21.4986,VALID,38,VALID,1.13086,
2012-06-20, 02:35:04,VALID,1000.79,VALID,0,VALID,94.7141,VALID,0,VALID,21.458,VALID,38,VALID,1.10898,
2012-06-20, 02:36:04,VALID,1000.78,VALID,0,VALID,94.5157,VALID,0,VALID,21.4206,VALID,38,VALID,1.00156,
2012-06-20, 02:37:04,VALID,1000.77,VALID,0,VALID,94.4318,VALID,0,VALID,21.3816,VALID,26,VALID,0.960938,
2012-06-20, 02:38:04,VALID,1000.76,VALID,0,VALID,94.3937,VALID,0,VALID,21.3426,VALID,23,VALID,0.882813,
2012-06-20, 02:39:04,VALID,1000.75,VALID,0,VALID,94.3631,VALID,0,VALID,21.2841,VALID,23,VALID,1.04062,
2012-06-20, 02:40:04,VALID,1000.78,VALID,0,VALID,94.4852,VALID,0,VALID,21.263,VALID,23,VALID,1.06016,
2012-06-20, 02:41:04,VALID,1000.8,VALID,0,VALID,94.5386,VALID,0,VALID,21.263,VALID,23,VALID,0.859766,
2012-06-20, 02:42:04,VALID,1000.83,VALID,0,VALID,94.5005,VALID,0,VALID,21.224,VALID,23,VALID,0.445313,
2012-06-20, 02:43:04,VALID,1000.82,VALID,0,VALID,94.5691,VALID,0,VALID,21.2435,VALID,336,VALID,0.727344,
2012-06-20, 02:44:04,VALID,1000.85,VALID,0,VALID,94.8438,VALID,0,VALID,21.3426,VALID,300,VALID,0.608203,
2012-06-20, 02:45:04,VALID,1000.85,VALID,0,VALID,95.004,VALID,0,VALID,21.3995,VALID,287,VALID,0.268359,
2012-06-20, 02:46:04,VALID,1000.83,VALID,0,VALID,95.0727,VALID,0,VALID,21.4401,VALID,287,VALID,0.332812,
2012-06-20, 02:47:04,VALID,1000.84,VALID,0,VALID,95.149,VALID,0,VALID,21.458,VALID,294,VALID,0.766797,
2012-06-20, 02:48:04,VALID,1000.86,VALID,0,VALID,95.2024,VALID,0,VALID,21.536,VALID,294,VALID,0.468359,
2012-06-20, 02:49:04,VALID,1000.87,VALID,0,VALID,95.1566,VALID,0,VALID,21.575,VALID,294,VALID,0.361719,
2012-06-20, 02:50:04,VALID,1000.87,VALID,0,VALID,95.1108,VALID,0,VALID,21.614,VALID,294,VALID,0.252734,
2012-06-20, 02:51:04,VALID,1000.86,VALID,0,VALID,95.0498,VALID,0,VALID,21.6936,VALID,294,VALID,0.309766,
2012-06-20, 02:52:04,VALID,1000.83,VALID,0,VALID,94.9201,VALID,0,VALID,21.731,VALID,314,VALID,0.714063,
2012-06-20, 02:53:04,VALID,1000.83,VALID,0,VALID,94.676,VALID,0,VALID,21.809,VALID,347,VALID,0.774219,
2012-06-20, 02:54:04,VALID,1000.85,VALID,0,VALID,94.2258,VALID,0,VALID,21.8675,VALID,2,VALID,0.902734,
2012-06-20, 02:55:04,VALID,1000.86,VALID,0,VALID,93.7528,VALID,0,VALID,21.887,VALID,17,VALID,0.922656,
2012-06-20, 02:56:04,VALID,1000.89,VALID,0,VALID,93.2187,VALID,0,VALID,21.8692,VALID,17,VALID,0.883984,
2012-06-20, 02:57:04,VALID,1000.92,VALID,0,VALID,92.8067,VALID,0,VALID,21.7911,VALID,17,VALID,0.754687,
2012-06-20, 02:58:04,VALID,1000.94,VALID,0,VALID,92.9517,VALID,0,VALID,21.7716,VALID,17,VALID,0.530078,
2012-06-20, 02:59:04,VALID,1000.94,VALID,0,VALID,92.9669,VALID,0,VALID,21.7326,VALID,17,VALID,0.474609,
2012-06-20, 03:00:04,VALID,1000.92,VALID,0,VALID,93.089,VALID,0,VALID,21.6936,VALID,17,VALID,0.356641,
2012-06-20, 03:01:04,VALID,1000.93,VALID,0,VALID,93.3331,VALID,0,VALID,21.6335,VALID,17,VALID,0.547266,
2012-06-20, 03:02:04,VALID,1000.93,VALID,0,VALID,93.6078,VALID,0,VALID,21.614,VALID,17,VALID,0.624219,
2012-06-20, 03:03:04,VALID,1000.91,VALID,0,VALID,93.8291,VALID,0,VALID,21.614,VALID,17,VALID,0.707031,
2012-06-20, 03:04:04,VALID,1000.91,VALID,0,VALID,93.9435,VALID,0,VALID,21.6335,VALID,17,VALID,0.924219,
2012-06-20, 03:05:04,VALID,1000.92,VALID,0,VALID,93.9206,VALID,0,VALID,21.6546,VALID,26,VALID,0.985156,
2012-06-20, 03:06:04,VALID,1000.92,VALID,0,VALID,93.7375,VALID,0,VALID,21.6741,VALID,32,VALID,0.671094,
2012-06-20, 03:07:04,VALID,1000.96,VALID,0,VALID,93.5391,VALID,0,VALID,21.653,VALID,32,VALID,0.566797,
2012-06-20, 03:08:04,VALID,1000.93,VALID,0,VALID,93.3637,VALID,0,VALID,21.6351,VALID,32,VALID,0.413281,
2012-06-20, 03:09:04,VALID,1000.93,VALID,0,VALID,93.3179,VALID,0,VALID,21.6156,VALID,32,VALID,0.426953,
2012-06-20, 03:10:04,VALID,1000.95,VALID,0,VALID,93.3789,VALID,0,VALID,21.5961,VALID,32,VALID,0.658984,
2012-06-20, 03:11:04,VALID,1000.91,VALID,0,VALID,93.4171,VALID,0,VALID,21.5766,VALID,32,VALID,0.985937,
2012-06-20, 03:12:04,VALID,1000.88,VALID,0,VALID,93.5544,VALID,0,VALID,21.5165,VALID,32,VALID,1.03711,
2012-06-20, 03:13:04,VALID,1000.88,VALID,0,VALID,93.6536,VALID,0,VALID,21.4775,VALID,32,VALID,0.928516,
2012-06-20, 03:14:04,VALID,1000.9,VALID,0,VALID,93.7757,VALID,0,VALID,21.458,VALID,32,VALID,1.04336,
2012-06-20, 03:15:04,VALID,1000.88,VALID,0,VALID,93.9817,VALID,0,VALID,21.458,VALID,32,VALID,1.18125,
2012-06-20, 03:16:04,VALID,1000.89,VALID,0,VALID,94.1343,VALID,0,VALID,21.4791,VALID,32,VALID,1.07813,
2012-06-20, 03:17:04,VALID,1000.88,VALID,0,VALID,94.1419,VALID,0,VALID,21.458,VALID,32,VALID,1.11836,
2012-06-20, 03:18:04,VALID,1000.89,VALID,0,VALID,94.1343,VALID,0,VALID,21.4775,VALID,32,VALID,0.987109,
2012-06-20, 03:19:04,VALID,1000.89,VALID,0,VALID,94.0961,VALID,0,VALID,21.458,VALID,19,VALID,0.804688,
2012-06-20, 03:20:04,VALID,1000.85,VALID,0,VALID,94.1953,VALID,0,VALID,21.4775,VALID,19,VALID,0.665625,
2012-06-20, 03:21:04,VALID,1000.9,VALID,0,VALID,94.3097,VALID,0,VALID,21.5165,VALID,19,VALID,0.732422,
2012-06-20, 03:22:04,VALID,1000.86,VALID,0,VALID,94.1877,VALID,0,VALID,21.5165,VALID,21,VALID,0.983984,
2012-06-20, 03:23:04,VALID,1000.87,VALID,0,VALID,94.0122,VALID,0,VALID,21.5181,VALID,21,VALID,1.19375,
2012-06-20, 03:24:04,VALID,1000.89,VALID,0,VALID,93.8901,VALID,0,VALID,21.4791,VALID,23,VALID,1.13086,
2012-06-20, 03:25:04,VALID,1000.88,VALID,0,VALID,93.8672,VALID,0,VALID,21.4385,VALID,23,VALID,0.944141,
2012-06-20, 03:26:04,VALID,1000.89,VALID,0,VALID,94.0122,VALID,0,VALID,21.4401,VALID,23,VALID,0.6375,
2012-06-20, 03:27:04,VALID,1000.92,VALID,0,VALID,94.0351,VALID,0,VALID,21.419,VALID,23,VALID,0.689062,
2012-06-20, 03:28:04,VALID,1000.97,VALID,0,VALID,94.0351,VALID,0,VALID,21.4011,VALID,23,VALID,0.789063,
2012-06-20, 03:29:04,VALID,1000.99,VALID,0,VALID,94.1266,VALID,0,VALID,21.38,VALID,33,VALID,0.812891,
2012-06-20, 03:30:04,VALID,1001.01,VALID,0,VALID,94.2716,VALID,0,VALID,21.38,VALID,33,VALID,0.402734,
2012-06-20, 03:31:04,VALID,1001,VALID,0,VALID,94.3174,VALID,0,VALID,21.38,VALID,33,VALID,0.547656,
2012-06-20, 03:32:04,VALID,1001,VALID,0,VALID,94.4852,VALID,0,VALID,21.3995,VALID,33,VALID,0.5875,
2012-06-20, 03:33:04,VALID,1000.97,VALID,0,VALID,94.6302,VALID,0,VALID,21.4401,VALID,41,VALID,0.730859,
2012-06-20, 03:34:04,VALID,1000.97,VALID,0,VALID,94.7523,VALID,0,VALID,21.4385,VALID,41,VALID,0.546094,
2012-06-20, 03:35:04,VALID,1000.92,VALID,0,VALID,94.8057,VALID,0,VALID,21.4401,VALID,41,VALID,0.0515625,
2012-06-20, 03:36:04,VALID,1000.95,VALID,0,VALID,94.8667,VALID,0,VALID,21.4401,VALID,41,VALID,0,
2012-06-20, 03:37:04,VALID,1000.93,VALID,0,VALID,94.8743,VALID,0,VALID,21.4385,VALID,41,VALID,0,
2012-06-20, 03:38:04,VALID,1000.95,VALID,0,VALID,94.9583,VALID,0,VALID,21.4385,VALID,41,VALID,0.282422,
2012-06-20, 03:39:04,VALID,1000.94,VALID,0,VALID,94.9811,VALID,0,VALID,21.4385,VALID,41,VALID,0.132422,
2012-06-20, 03:40:04,VALID,1000.97,VALID,0,VALID,95.004,VALID,0,VALID,21.4596,VALID,41,VALID,0,
2012-06-20, 03:41:04,VALID,1000.98,VALID,0,VALID,95.004,VALID,0,VALID,21.4596,VALID,41,VALID,0,
2012-06-20, 03:42:04,VALID,1000.98,VALID,0,VALID,95.0345,VALID,0,VALID,21.4596,VALID,41,VALID,0,
2012-06-20, 03:43:04,VALID,1001.01,VALID,0,VALID,95.0269,VALID,0,VALID,21.419,VALID,41,VALID,0,
2012-06-20, 03:44:04,VALID,1000.97,VALID,0,VALID,95.0193,VALID,0,VALID,21.3995,VALID,41,VALID,0,
2012-06-20, 03:45:04,VALID,1000.99,VALID,0,VALID,95.0651,VALID,0,VALID,21.419,VALID,41,VALID,0.223047,
2012-06-20, 03:46:04,VALID,1001,VALID,0,VALID,95.1414,VALID,0,VALID,21.4596,VALID,41,VALID,0.358984,
2012-06-20, 03:47:04,VALID,1001.02,VALID,0,VALID,95.1795,VALID,0,VALID,21.458,VALID,41,VALID,0.293359,